Location: N�rnberg
(49.4471°N, 11.0632°E)
Time: 21:51:56
(UTC+02:00)

VELOX 1 - Pass Details

Date: 28 April 2026
Orbit: 569 x 580 km, 98.3° (Epoch: 13 May)

Event Time Altitude Azimuth Distance (km) Brightness Sun altitude
Rises 01:14:58 0° 9° (N) 2,786 ? -26.5°
Reaches altitude 10° 01:17:11 10° 3° (N) 1,884 ? -26.5°
Enters shadow 01:20:35 42° 313° (NW) 823 ? -26.4°
